Location: Seattle
(47.6064°N, 122.3308°W)
Time: 00:15:50
(UTC-07:00)

STRAND 1 - Pass Details

Date: 08 April 2023
Orbit: 767 x 779 km, 98.4° (Epoch: 02 June)

Event Time Altitude Azimuth Distance (km) Brightness Sun altitude
Rises 20:51:49 0° 8° (N) 3,250 ? -10.9°
Reaches altitude 10° 20:54:14 10° 1° (N) 2,319 ? -11.2°
Maximum altitude 20:58:57 39° 293° (WNW) 1,136 ? -12.0°
Drops below altitude 10° 21:03:39 10° 226° (SW) 2,306 ? -12.7°
Sets 21:06:04 0° 218° (SW) 3,229 ? -13.0°
